Satellite-Ground Cal/Val Region Overpasses Predictions

Prediction of Satellite NPP Overpassing Cal/Val Region: PacNW

Region Location: (Latitude: 10.00, Longitude: 139.50) to (Latitude: 22.70, Longitude: 165.60).

Table of predicted overpasses for the next 14.0 days since TLE Epoch: 3/10/2017
Interval Starting Time Starting Location Ending Time Ending Location
1 03/11/2017 02:26:30 ( 10.06, 163.06) 03/11/2017 02:30:05 ( 22.68, 160.06)
2 03/11/2017 14:58:21 ( 22.68, 160.31) 03/11/2017 15:01:56 ( 10.06, 157.30)
3 03/12/2017 02:10:08 ( 19.52, 165.60) 03/12/2017 02:11:02 ( 22.69, 164.82)
4 03/12/2017 03:48:56 ( 10.02, 142.46) 03/12/2017 03:52:27 ( 22.41, 139.51)
5 03/12/2017 14:39:19 ( 22.67, 165.06) 03/12/2017 14:42:54 ( 10.05, 162.06)
6 03/12/2017 16:20:49 ( 22.66, 139.69) 03/12/2017 16:21:01 ( 21.96, 139.51)
7 03/13/2017 03:29:54 ( 10.03, 147.22) 03/13/2017 03:33:29 ( 22.65, 144.21)
8 03/13/2017 16:01:47 ( 22.65, 144.45) 03/13/2017 16:05:22 ( 10.03, 141.44)
9 03/14/2017 03:10:51 ( 10.04, 151.97) 03/14/2017 03:14:26 ( 22.66, 148.97)
10 03/14/2017 15:42:43 ( 22.70, 149.22) 03/14/2017 15:46:19 ( 10.02, 146.20)
11 03/15/2017 02:51:49 ( 10.05, 156.73) 03/15/2017 02:55:24 ( 22.67, 153.73)
12 03/15/2017 15:23:41 ( 22.69, 153.98) 03/15/2017 15:27:17 ( 10.01, 150.96)
13 03/16/2017 02:32:46 ( 10.06, 161.49) 03/16/2017 02:36:21 ( 22.68, 158.49)
14 03/16/2017 15:04:38 ( 22.68, 158.74) 03/16/2017 15:08:14 ( 10.00, 155.72)
15 03/17/2017 02:14:32 ( 12.89, 165.60) 03/17/2017 02:17:19 ( 22.69, 163.25)
16 03/17/2017 03:55:13 ( 10.02, 140.89) 03/17/2017 03:56:54 ( 15.95, 139.51)
17 03/17/2017 14:45:36 ( 22.67, 163.49) 03/17/2017 14:49:11 ( 10.05, 160.49)
18 03/18/2017 03:36:10 ( 10.03, 145.64) 03/18/2017 03:39:45 ( 22.65, 142.64)
19 03/18/2017 14:29:43 ( 11.51, 165.59) 03/18/2017 14:30:08 ( 10.04, 165.25)
20 03/18/2017 16:08:03 ( 22.65, 142.88) 03/18/2017 16:11:38 ( 10.03, 139.87)
21 03/19/2017 03:17:08 ( 10.04, 150.40) 03/19/2017 03:20:43 ( 22.67, 147.40)
22 03/19/2017 15:49:00 ( 22.70, 147.65) 03/19/2017 15:52:36 ( 10.02, 144.63)
23
